375P/Hill (2018)

Japanese version
Home page
Updated on July 9, 2019

---------------------------------------------------------------------

* Profile

Designation 375P/2018 T1
Recovery Date October 5, 2018
Magnitude 20.6 mag
Recoverer K. Sarneczky (Konkoly Observatory)

* Pictures

* Orbital Elements

Epoch 2018 Dec. 28.0 TT = JDT 2458480.5
T 2018 Dec. 21.43409 TT                                 MPCW
q   1.8951607            (2000.0)            P               Q
n   0.07511974     Peri.  119.42535     -0.49076826     -0.87129012
a   5.5628840      Node   359.96411     +0.65957533     -0.37137624
e   0.6593205      Incl.   17.36544     +0.56930387     -0.32083206
P  13.12
From 281 observations 2005 Dec. 5-2019 Apr. 4, mean residual 0".5.

* Magnitudes Graph

        m1 = 15.0 + 5 log d + 10.0 log r

---------------------------------------------------------------------

The orbital elements are published on M.P.E.C. 2019-J142.
The magnitudes graphs are made with Comet for Windows.

---------------------------------------------------------------------

Copyright(C) Seiichi Yoshida (comet@aerith.net). All rights reserved.